{"data":{"norad_id":69075,"intl_designator":"2026-104C","name":"QIANFAN-129","alt_names":[],"object_type":"PAYLOAD","status":"ACTIVE","operator":null,"country":"PRC","launch_date":"2026-05-12","launch_site_code":"TAISC","launch_vehicle":null,"mission":null,"orbit_class":"UNKNOWN","rcs_meters":null,"size_class":null,"mass_kg":null,"dimensions":null,"purposes":[],"wikipedia_slug":null,"has_3d_model":false,"image_url":null,"decayed_at":null,"tle_current":{"epoch":"2026-05-25T04:07:34.255200Z","epoch_age_seconds":60255,"freshness":"FRESH","line1":"1 69075U 26104C   26145.17192425  .00000136  00000+0  50215-4 0  9995","line2":"2 69075  88.9868 344.2445 0003343 157.5148 202.6193 14.26565072  1828","mean_motion":14.26565072,"eccentricity":0.0003343,"inclination_deg":88.9868,"raan_deg":344.2445,"arg_perigee_deg":157.5148,"mean_anomaly_deg":202.6193,"bstar":5.0215e-5,"rev_number":182,"period_min":100.94176762516,"perigee_km":800.83470083381,"apogee_km":805.63616644294,"semimajor_km":7181.3724336384,"source":"CELESTRAK","updated_at":"2026-05-25T13:38:09.049323Z"}}}